GSAT0212 (PRN E03)

Last updated on Mon Jul 22 2024 00:03:08 GMT+0000 (Coordinated Universal Time)

1 41860U 16069B 24202.91190250 -.00000007 00000+0 00000+0 0 9994 2 41860 55.1014 120.3783 0003565 337.9755 22.0089 1.70473950 47782
UTC large
Height (km)
Speed (km/s)
/
Latitude / Longitude
Inclination (degrees)
Orbital Period (minutes)
Azimuth
Elevation
Range (km)
Doppler Factor

Next 0 passes for location: London (51.5072 / 0.1276)

Sorry there are no passes over London.